[[{"header":{"parameterUnit":"m.s-1","parameterCategory":1,"la1":30.2991,"la2":30.254,"lo1":-89.0895,"lo2":-89.0444,"dy":0.0017,"dx":0.0017,"nx":28,"ny":28,"refTime":"2024-08-03T03:00:00:Z","depth":0,"parameterNumber":2,"parameterNumberName":"U-component_of_WINDS"},"data":[0,0,0,0,0,0,0,0,0,0,0,0,0,0,0,0,0,0,0,0,0,0,0,0,0,0,0,0,0,0,0,0,0,0,0,0,0,0,0,0,0,0,0,0,0,0,0,0,0,0,0,0,0,0,0,0,0,0,-1.1504,-1.1504,0,-1.153,-1.153,-1.1531,-1.1553,-1.1554,-1.1554,-1.1554,-1.158,-1.158,-1.1581,0,0,0,0,0,0,0,0,0,0,0,0,0,-1.1472,-1.1473,-1.1504,-1.1504,-1.1504,-1.153,-1.153,-1.1531,-1.1553,-1.1554,-1.1554,-1.1554,-1.158,-1.158,-1.1581,0,0,0,0,0,0,0,0,0,0,0,0,0,-1.1491,-1.1473,-1.1503,-1.1519,-1.152,-1.153,-1.153,-1.1531,-1.1553,-1.1554,-1.1554,-1.1554,-1.158,-1.158,-1.1581,-1.1577,0,0,-1.1583,-1.1583,0,0,0,0,0,0,0,0,-1.149,-1.1492,-1.1516,-1.1518,-1.152,-1.1539,-1.1529,-1.1546,-1.1553,-1.1541,-1.1554,-1.1555,-1.1566,-1.1568,-1.1572,-1.1578,-1.1579,-1.1583,-1.1583,-1.1584,-1.1584,0,0,0,0,0,0,0,-1.1489,-1.1491,-1.1514,-1.1516,-1.1519,-1.1524,-1.1527,-1.1532,-1.1551,-1.1542,-1.1544,-1.1546,-1.1567,-1.1571,-1.1573,-1.158,-1.1583,-1.1584,-1.1584,-1.1584,-1.1586,-1.1585,0,0,0,0,0,0,-1.1485,-1.149,-1.1513,-1.1515,-1.1505,-1.1524,-1.1528,-1.1532,-1.1551,-1.1554,-1.1546,-1.1547,-1.157,-1.1572,-1.1574,-1.1571,-1.1584,-1.1584,-1.1585,-1.1586,-1.1586,-1.1585,0,0,0,0,0,0,-1.1484,-1.1487,-1.1512,-1.1503,-1.1506,-1.1524,-1.1529,-1.1533,-1.1537,-1.1554,-1.1557,-1.1547,-1.157,-1.1573,-1.1576,-1.1572,-1.1585,-1.1585,-1.1586,-1.1586,-1.1585,-1.1565,0,0,0,0,0,0,-1.1483,-1.1487,-1.1485,-1.1503,-1.1507,-1.1514,-1.1529,-1.1533,-1.1538,-1.154,-1.1556,-1.1559,-1.1571,-1.1575,-1.1577,-1.1573,-1.1586,-1.1587,-1.1586,-1.1586,-1.1566,-1.1564,-1.1562,0,0,0,0,0,-1.1482,-1.1478,-1.1485,-1.1488,-1.1506,-1.1514,-1.1517,-1.1531,-1.1537,-1.1536,-1.1548,-1.1558,-1.1572,-1.1575,-1.1578,-1.1574,-1.1587,-1.1586,-1.1586,-1.1567,-1.1564,-1.1562,0,0,0,0,0,0,-1.1459,-1.148,-1.1489,-1.149,-1.15,-1.1518,-1.1517,-1.1527,-1.1535,-1.1537,-1.1554,-1.1557,-1.1559,-1.1567,-1.157,-1.1572,-1.1581,-1.1581,-1.1566,-1.1564,-1.1562,-1.156,-1.1586,0,0,0,0,0,-1.1454,-1.1459,-1.1478,-1.1477,-1.1482,-1.1499,-1.1503,-1.1513,-1.1524,-1.1528,-1.154,-1.155,-1.1557,-1.1561,-1.1568,-1.1568,-1.1572,-1.1566,-1.1564,-1.1562,-1.1561,-1.1563,-1.1561,-1.1583,-1.1583,-1.1583,0,0,-1.1443,-1.1456,-1.1458,-1.1473,-1.1482,-1.1487,-1.1502,-1.1506,-1.151,-1.1529,-1.1533,-1.1542,-1.1555,-1.1557,-1.1558,-1.1563,-1.1557,-1.1561,-1.156,-1.156,-1.1562,-1.156,-1.1558,-1.1582,-1.1582,-1.1582,0,0,-1.1427,-1.1437,-1.1438,-1.1447,-1.1461,-1.1473,-1.1473,-1.149,-1.1496,-1.1501,-1.1516,-1.1521,-1.1532,-1.154,-1.1546,-1.1535,-1.1545,-1.1537,-1.1525,-1.1526,-1.1525,-1.1523,-1.1519,-1.1518,-1.1536,-1.1536,-1.1536,0,-1.1412,-1.1421,-1.1437,-1.1441,-1.1448,-1.1465,-1.1467,-1.1475,-1.149,-1.1494,-1.15,-1.1515,-1.1524,-1.1529,-1.1526,-1.153,-1.1531,-1.1535,-1.1524,-1.1522,-1.1521,-1.1518,-1.1516,-1.1535,-1.1535,-1.1535,-1.1535,0,-1.1402,-1.1408,-1.1407,-1.1423,-1.1429,-1.1431,-1.1448,-1.1452,-1.1462,-1.1473,-1.1478,-1.1491,-1.1501,-1.1503,-1.1512,-1.1509,-1.1512,-1.152,-1.153,-1.1518,-1.1515,-1.1514,-1.1533,-1.1534,-1.1534,-1.1534,0,0,-1.1371,-1.1397,-1.1396,-1.1403,-1.1421,-1.1426,-1.1429,-1.144,-1.1444,-1.1454,-1.1457,-1.1467,-1.1476,-1.1482,-1.1493,-1.1494,-1.1485,-1.1502,-1.1503,-1.1499,-1.1482,-1.1476,-1.1474,-1.1492,-1.1491,-1.1491,-1.1481,0,-1.1358,-1.1366,-1.1381,-1.1384,-1.139,-1.1408,-1.1411,-1.1422,-1.1433,-1.1439,-1.145,-1.1457,-1.1468,-1.1472,-1.1473,-1.1485,-1.1481,-1.1486,-1.1495,-1.1495,-1.1491,-1.1473,-1.1466,-1.1455,-1.148,-1.148,-1.148,0,-1.1343,-1.1353,-1.1357,-1.1375,-1.1378,-1.1381,-1.1393,-1.1399,-1.1412,-1.1419,-1.1427,-1.144,-1.1445,-1.1454,-1.1461,-1.1464,-1.1469,-1.1476,-1.1476,-1.1477,-1.1487,-1.1473,-1.1453,-1.1451,-1.1478,-1.1479,-1.1479,0,-1.132,-1.1335,-1.134,-1.1346,-1.1367,-1.1368,-1.1377,-1.1391,-1.1396,-1.1407,-1.1411,-1.1421,-1.1427,-1.1435,-1.1449,-1.1455,-1.1455,-1.1466,-1.1462,-1.1461,-1.1461,-1.1461,-1.1441,-1.1464,-1.1464,-1.1464,-1.1464,0,-1.1304,-1.1306,-1.133,-1.1333,-1.1335,-1.1353,-1.1355,-1.1366,-1.1378,-1.1383,-1.1399,-1.1403,-1.1422,-1.1429,-1.1441,-1.1445,-1.1448,-1.1454,-1.1457,-1.1453,-1.1452,-1.1456,-1.1457,-1.1463,-1.1464,-1.1464,-1.1464,0,-1.1279,-1.1295,-1.1301,-1.1321,-1.1326,-1.1327,-1.1344,-1.1348,-1.136,-1.1366,-1.1368,-1.1387,-1.1396,-1.1411,-1.1424,-1.1432,-1.1435,-1.144,-1.143,-1.1432,-1.1428,-1.1428,-1.1409,-1.1408,-1.1432,-1.1431,-1.1431,0,-1.1267,-1.1269,-1.129,-1.1295,-1.1303,-1.131,-1.1317,-1.1335,-1.1341,-1.1357,-1.1358,-1.1369,-1.1378,-1.1391,-1.1405,-1.1416,-1.1421,-1.1414,-1.1423,-1.1419,-1.1422,-1.1421,-1.1422,-1.1412,-1.1412,-1.1411,-1.1411,0,-1.1245,-1.1253,-1.1262,-1.1274,-1.1282,-1.1292,-1.1303,-1.1306,-1.1326,-1.1332,-1.1342,-1.1349,-1.1363,-1.1373,-1.1386,-1.1395,-1.1406,-1.1408,-1.1408,-1.1404,-1.1398,-1.1401,-1.1425,-1.1409,-1.1409,-1.1409,-1.1409,-1.1409,-1.1226,-1.1229,-1.1245,-1.1254,-1.1265,-1.1275,-1.1279,-1.1292,-1.1301,-1.1314,-1.1324,-1.1333,-1.1347,-1.1365,-1.1374,-1.1381,-1.1386,-1.1386,-1.1386,-1.1385,-1.1384,-1.1397,-1.1383,-1.1384,-1.1384,-1.1384,-1.1384,0,-1.1205,-1.1216,-1.1225,-1.1241,-1.1248,-1.126,-1.1272,-1.1278,-1.1286,-1.1298,-1.1307,-1.1319,-1.1329,-1.1345,-1.1356,-1.1359,-1.1365,-1.1362,-1.1362,-1.1364,-1.1378,-1.1377,-1.1357,-1.1357,-1.1357,-1.1357,-1.1357,-1.1357,-1.1195,-1.1201,-1.1211,-1.1223,-1.1234,-1.1243,-1.125,-1.1259,-1.1269,-1.1282,-1.1291,-1.1301,-1.1315,-1.1328,-1.1338,-1.1342,-1.1346,-1.1341,-1.1347,-1.136,-1.1362,-1.1365,-1.1364,-1.1341,-1.1341,-1.1332,-1.1332,-1.1331]},{"header":{"parameterUnit":"m.s-1","parameterCategory":1,"la1":30.2991,"la2":30.254,"lo1":-89.0895,"lo2":-89.0444,"dy":0.0017,"dx":0.0017,"nx":28,"ny":28,"refTime":"2024-08-03T03:00:00:Z","depth":0,"parameterNumber":3,"parameterNumberName":"V-component_of_WINDS"},"data":[0,0,0,0,0,0,0,0,0,0,0,0,0,0,0,0,0,0,0,0,0,0,0,0,0,0,0,0,0,0,0,0,0,0,0,0,0,0,0,0,0,0,0,0,0,0,0,0,0,0,0,0,0,0,0,0,0,0,2.6708,2.6711,0,2.6948,2.6951,2.6953,2.7092,2.7092,2.7093,2.7093,2.7339,2.7345,2.7351,0,0,0,0,0,0,0,0,0,0,0,0,0,2.6372,2.6377,2.6708,2.6711,2.6714,2.6948,2.6951,2.6954,2.7092,2.7092,2.7093,2.7093,2.7337,2.7344,2.7352,0,0,0,0,0,0,0,0,0,0,0,0,0,2.6555,2.6379,2.6707,2.6811,2.6822,2.6947,2.6951,2.6955,2.7091,2.7092,2.7093,2.7094,2.7335,2.7344,2.7353,2.7393,0,0,2.738,2.7384,0,0,0,0,0,0,0,0,2.6545,2.6567,2.6793,2.6804,2.6817,2.6991,2.6923,2.7102,2.7091,2.6989,2.7093,2.7094,2.7223,2.7241,2.7284,2.7405,2.7415,2.7381,2.7387,2.7391,2.7393,0,0,0,0,0,0,0,2.6532,2.6558,2.6803,2.6796,2.6811,2.6846,2.6873,2.6957,2.7099,2.6998,2.7009,2.7035,2.7229,2.7275,2.7291,2.7419,2.7381,2.7389,2.7395,2.7398,2.7588,2.7588,0,0,0,0,0,0,2.6502,2.6546,2.6795,2.681,2.668,2.6851,2.6882,2.6934,2.7098,2.7124,2.7034,2.7041,2.7259,2.728,2.73,2.7362,2.7391,2.7399,2.7404,2.7589,2.7588,2.7588,0,0,0,0,0,0,2.6495,2.6523,2.6786,2.6681,2.6718,2.6856,2.6914,2.6939,2.6985,2.7125,2.7152,2.7055,2.7261,2.7287,2.737,2.7372,2.7403,2.7411,2.7589,2.7589,2.7588,2.7482,0,0,0,0,0,0,2.6484,2.652,2.6536,2.6681,2.6722,2.685,2.6915,2.6943,2.7,2.701,2.7152,2.7176,2.7263,2.7356,2.7379,2.7385,2.7419,2.759,2.7589,2.7588,2.7486,2.7478,2.7471,0,0,0,0,0,2.6472,2.6496,2.6536,2.6565,2.6746,2.685,2.6874,2.6974,2.6999,2.7018,2.7109,2.7171,2.7367,2.7363,2.739,2.7399,2.759,2.7589,2.7588,2.749,2.748,2.7472,0,0,0,0,0,0,2.6348,2.6517,2.6563,2.6634,2.6727,2.6873,2.6899,2.696,2.7048,2.7054,2.7175,2.7206,2.7277,2.7346,2.7338,2.7449,2.7486,2.749,2.7401,2.7393,2.7386,2.7369,2.7426,0,0,0,0,0,2.6328,2.6399,2.6543,2.6592,2.6636,2.6759,2.6809,2.6878,2.6979,2.7019,2.7116,2.7211,2.7295,2.7348,2.7432,2.7496,2.7531,2.7516,2.7508,2.7502,2.7505,2.7547,2.7544,2.7585,2.7585,2.7585,0,0,2.629,2.6391,2.6428,2.657,2.665,2.6721,2.6791,2.6863,2.6918,2.703,2.7115,2.7188,2.7304,2.7378,2.7415,2.7438,2.7501,2.7501,2.7494,2.7502,2.7546,2.7542,2.7538,2.7584,2.7584,2.7585,0,0,2.6257,2.6339,2.6391,2.6469,2.6589,2.6672,2.6683,2.6821,2.6875,2.6962,2.7048,2.7115,2.7255,2.7335,2.7394,2.7392,2.7454,2.7416,2.7377,2.7417,2.7414,2.7412,2.7414,2.7413,2.7418,2.7418,2.7418,0,2.6194,2.6305,2.6409,2.6478,2.6539,2.6642,2.6697,2.6768,2.6909,2.695,2.6972,2.7153,2.7238,2.7334,2.7333,2.7376,2.7396,2.7401,2.7406,2.7405,2.7404,2.7408,2.7408,2.7413,2.7413,2.7414,2.7414,0,2.6223,2.6298,2.6326,2.646,2.6524,2.6584,2.67,2.6752,2.6815,2.6895,2.6984,2.7089,2.7198,2.7225,2.7287,2.7331,2.7341,2.7383,2.7423,2.7393,2.7399,2.7401,2.7405,2.7407,2.7409,2.741,0,0,2.612,2.6312,2.6321,2.6384,2.6525,2.6586,2.6651,2.6758,2.6802,2.6896,2.6956,2.7073,2.7114,2.718,2.7252,2.7286,2.7282,2.7325,2.733,2.7316,2.734,2.731,2.7309,2.7323,2.7324,2.7325,2.7332,0,2.611,2.6233,2.633,2.6417,2.649,2.659,2.6648,2.6741,2.6817,2.6891,2.6975,2.7058,2.7103,2.7145,2.7183,2.7274,2.7289,2.7275,2.7383,2.7385,2.7353,2.7312,2.728,2.7282,2.7334,2.7335,2.7335,0,2.6115,2.6206,2.63,2.6435,2.6469,2.6519,2.6627,2.6694,2.6803,2.6856,2.6931,2.7006,2.7082,2.7112,2.722,2.7208,2.7258,2.7309,2.7312,2.7328,2.736,2.733,2.7284,2.7285,2.7339,2.7338,2.7338,0,2.6034,2.618,2.6256,2.6307,2.6465,2.6499,2.6566,2.6675,2.6734,2.6827,2.6867,2.6967,2.7023,2.71,2.7201,2.7213,2.7299,2.7337,2.7347,2.7345,2.7363,2.7361,2.7327,2.7389,2.7389,2.7389,2.7389,0,2.6015,2.6069,2.6222,2.6269,2.6334,2.6445,2.6506,2.6583,2.6679,2.6744,2.6836,2.6895,2.7023,2.7098,2.7177,2.7256,2.728,2.7326,2.7347,2.732,2.7314,2.7356,2.736,2.7389,2.7389,2.7389,2.7389,0,2.5936,2.6041,2.6131,2.6273,2.6311,2.6352,2.6476,2.6526,2.6607,2.6688,2.6714,2.6842,2.6935,2.7043,2.7171,2.7224,2.7298,2.7327,2.7261,2.7274,2.7279,2.7278,2.7273,2.728,2.7333,2.7333,2.7332,0,2.5918,2.5963,2.611,2.616,2.6225,2.6304,2.6365,2.6476,2.6536,2.6663,2.6698,2.6799,2.6885,2.703,2.7135,2.7234,2.7268,2.7259,2.7284,2.7255,2.7272,2.7269,2.7275,2.7253,2.7252,2.7251,2.725,0,2.5877,2.5926,2.601,2.6111,2.6181,2.6267,2.6356,2.6392,2.6522,2.6584,2.6681,2.6747,2.6879,2.6978,2.7091,2.7162,2.7229,2.7242,2.725,2.7224,2.7185,2.7209,2.7246,2.7242,2.7243,2.7243,2.7244,2.7244,2.5831,2.5876,2.5987,2.6078,2.6156,2.6238,2.6293,2.6382,2.6464,2.658,2.664,2.6737,2.6846,2.7004,2.7073,2.7151,2.7173,2.7184,2.7187,2.7189,2.7183,2.717,2.7171,2.7172,2.7172,2.7172,2.7173,0,2.5797,2.5873,2.5955,2.6077,2.6149,2.6204,2.6306,2.6363,2.6446,2.6542,2.6625,2.6738,2.6835,2.6947,2.7052,2.7093,2.7126,2.7117,2.7116,2.7132,2.7155,2.7139,2.7088,2.7088,2.7088,2.7088,2.7088,2.7088,2.5787,2.5868,2.593,2.6051,2.6128,2.6223,2.6277,2.6354,2.6431,2.6552,2.6633,2.6706,2.6809,2.6922,2.7014,2.7045,2.7081,2.7063,2.7103,2.7123,2.713,2.7137,2.7123,2.7069,2.7069,2.7074,2.7074,2.7074]}]]